EST,Max TemperatureF,Mean TemperatureF,Min TemperatureF,Max Dew PointF,MeanDew PointF,Min DewpointF,Max Humidity, Mean Humidity, Min Humidity, Max Sea Level PressureIn, Mean Sea Level PressureIn, Min Sea Level PressureIn, Max VisibilityMiles, Mean VisibilityMiles, Min VisibilityMiles, Max Wind SpeedMPH, Mean Wind SpeedMPH, Max Gust SpeedMPH,PrecipitationIn, CloudCover, Events, WindDirDegrees
2013-1-1,74,58,42,62,53,42,100,79,57,30.18,30.07,29.98,10,8,4,21,8,26,T,3,,194
2013-1-2,67,61,55,64,55,44,100,78,56,30.15,30.04,29.95,10,8,2,17,5,21,0.04,8,Rain,314
2013-1-3,63,50,37,47,43,36,100,83,66,30.33,30.24,30.14,10,7,2,12,4,15,0.10,6,Rain,338
2013-1-4,57,44,31,42,36,30,100,76,51,30.42,30.36,30.32,10,8,2,10,2,13,0.00,0,,353
2013-1-5,56,45,33,45,34,26,93,63,32,30.42,30.36,30.30,10,10,8,10,2,30,T,3,Rain,37
2013-1-6,56,50,43,43,41,36,89,68,47,30.29,30.24,30.19,10,10,10,9,2,10,T,6,Rain,355
2013-1-7,59,47,35,39,36,32,100,69,37,30.36,30.32,30.28,10,10,9,17,7,24,0.00,1,,54
2013-1-8,69,58,46,52,44,36,75,65,53,30.37,30.30,30.25,10,10,10,10,7,,0.00,5,,51
2013-1-9,70,63,56,63,56,49,87,80,72,30.40,30.34,30.28,10,9,5,12,7,20,T,8,Rain,62
2013-1-10,73,68,63,65,63,62,100,90,79,30.37,30.32,30.26,10,9,6,14,6,18,T,7,Rain,95
2013-1-11,79,69,59,64,61,57,93,73,52,30.26,30.21,30.15,10,10,8,15,7,20,0.00,3,,172
2013-1-12,80,67,53,61,56,53,100,75,50,30.21,30.16,30.10,10,5,0,16,4,22,0.00,1,Fog,186
2013-1-13,80,68,56,64,59,55,100,89,52,30.15,30.10,30.06,10,4,0,20,3,25,0.00,3,Fog,167
2013-1-14,79,69,59,65,62,57,100,85,56,30.19,30.13,30.10,10,7,0,13,7,20,0.00,5,Fog,188
2013-1-15,78,68,57,63,59,55,100,78,56,30.14,30.09,30.04,10,8,2,18,8,25,0.00,4,,186
2013-1-16,80,71,62,66,63,61,93,76,58,30.06,30.01,29.94,10,8,2,18,9,24,0.21,7,Rain,205
2013-1-17,66,53,40,65,52,31,100,83,65,30.23,30.00,29.89,10,8,2,23,11,32,0.07,8,Rain,226
2013-1-18,60,49,37,36,33,27,85,56,27,30.49,30.40,30.25,10,10,9,16,7,24,0.00,1,,21
2013-1-19,66,51,36,44,35,26,86,64,42,30.45,30.36,30.27,10,10,9,10,4,20,0.00,1,,44
2013-1-20,68,55,41,44,40,35,96,64,32,30.28,30.20,30.13,10,9,4,10,3,23,0.00,1,,308
2013-1-21,67,51,34,42,37,32,96,64,32,30.21,30.15,30.09,10,8,3,12,3,24,0.00,0,,303
2013-1-22,58,46,33,34,26,19,75,49,23,30.37,30.30,30.19,10,9,2,14,4,17,0.00,0,,341
2013-1-23,61,45,29,40,31,26,85,61,37,30.46,30.37,30.29,10,5,2,14,3,17,0.00,1,,239
2013-1-24,71,59,46,51,46,34,93,69,44,30.34,30.29,30.24,10,8,5,18,7,25,0.00,3,,277
2013-1-25,68,57,45,50,41,24,76,56,35,30.38,30.29,30.17,10,9,6,15,7,17,0.00,3,,139
2013-1-26,69,57,45,56,52,39,100,81,61,30.29,30.23,30.18,10,8,4,15,5,17,0.00,4,,280
2013-1-27,68,53,37,48,42,34,85,65,45,30.40,30.36,30.30,10,9,6,13,6,17,0.00,1,,72
2013-1-28,75,62,49,58,52,46,93,74,54,30.40,30.34,30.27,10,8,4,10,4,13,0.00,5,,92
2013-1-29,82,67,52,63,56,50,100,73,45,30.26,30.19,30.05,10,5,1,20,8,24,0.00,4,,164
2013-1-30,76,65,53,67,60,43,93,82,71,30.02,29.85,29.63,10,8,0,33,16,45,0.90,7,Rain-Thunderstorm,213
2013-1-31,56,46,36,39,27,20,70,47,24,30.28,30.16,29.97,10,10,10,24,9,32,0.00,0,,294